Terminal Aerodrome Forecast
Issued by NWS Amarillo, TX

Home | Current Version | Previous Version | Text Only | Print | Product List | Glossary On
Versions: 1 2 3 4 5 6 7 8 9 10 11 12 13
000
FTUS44 KAMA 051120
TAFAMA
TAF
KAMA 051120Z 0512/0612 18008KT P6SM FEW110 BKN200
     FM051500 20014G22KT P6SM FEW110 SCT200
     FM060000 18011KT P6SM BKN200=

USA.gov is the U.S. government's official web portal to all federal, state and local government web resources and services.